STARLINK-33926, 64147

Orbit data source: Space-Track

STARLINK-33926, 64147 is a payload satellite owned by SpaceX/Seattle (US) in SSO that was launched on Tue, 27 May 2025 UTC via an FALCON 9 launch vehicle from the Air Force Western Test Range (AFWTR). Payload-class satellites include a variety of spacecraft equipped with specific instruments for various scientific and technological missions. These include communications satellites like Starlink; space stations such as the ISS; scientific satellites like the Hubble; Earth observation satellites from companies like Planet Labs, Umbra, and HawkEye 360; GPS; miniature CubeSats for education and research; and military/defense satellites.

Loading next visibility...
Identifier
64147, 2025-112B
Orbit
SSO
Country
Flag of USUS
Related business
Manufacturer
SpaceX/Seattle
Mission
Operational Commercial Communications
Bus & Motor
STARLINK V2MO, Unknown motor
Mass
575 kg wet, ~530 kg dry
Launch date (UTC)
2025-05-27 (1 year ago)
Launch vehicle
FALCON 9
Launch site
Air Force Western Test Range (AFWTR)
Object type
Payload
Rocket body
Debris
Shape & HBR
Box + 2 Pan, 17.7 m
Radar Cross Section
36.964 m², Large (>1 m²)

Expand to show TLE details & history
Last TLE update: 18 hours ago

TLE from 18 hours ago
0 STARLINK-33926
1 64147U 25112B   26197.63963781  .00002745  00000-0  19402-3 0  9998
2 64147  97.2823 246.5217 0002356 128.9778 231.1660 15.05657089 62711
Epoch: 2026-07-16T15:21Z
TLE epoch observation values (Epoch: 2026-07-16T15:21:04.706Z)
Latitude
-0.00003°
Longitude
81.77389°
Altitude
553.588 km
Speed
7.584 km/s
True Right ascension
16h 26m 05s
True Declination
0° 00' 00"
Sunlit
Object was in full shadow at epoch
Visualization orbit readout
Latitude
Unknown
Longitude
Unknown
Altitude
Unknown
Speed
Unknown
Apparent Right ascension
Unknown
Apparent Declination
Unknown
Sunlit
N/A
Visualization observer readout
Local Sidereal Time
21:59:10
Azimuth
Unknown
Elevation
Unknown
Doppler factor
Unknown
Orbital elements
Apogee altitude
548.101 km
Perigee altitude
544.838 km
Semi-major axis
6,924.606 km
Eccentricity
0.00024
Inclination
97.2823°
RAAN
246.5217°
Arg. of periapsis
128.9778°
True anomaly
231.14497°
Mean anomaly
231.166°
Eccentric anomaly
231.15549°
Mean motion
3.76661 °/min
Orbital period
95.58 mins
BSTAR
0.00019402
Loading maneuver chart data...
Computing Atmospheric mass density...
Loading historical data...
Loading historical data...
Loading historical data...
Loading historical data...
Loading historical data...
Loading historical data...
Loading historical data...

Documentation

Showing up to 5 results
|